{"data":{"norad_id":48988,"epoch":"2026-05-25T00:06:23.367168Z","epoch_age_seconds":64763,"freshness":"FRESH","line1":"1 48988U 21060X   26145.00443712  .00000061  00000+0  12625-3 0  9990","line2":"2 48988  87.9109 233.3856 0001618  99.0830 261.0484 13.16592944236615","mean_motion":13.16592944,"eccentricity":0.0001618,"inclination_deg":87.9109,"raan_deg":233.3856,"arg_perigee_deg":99.083,"mean_anomaly_deg":261.0484,"bstar":0.00012625,"rev_number":23661,"period_min":109.37321262144,"perigee_km":1196.5359234956,"apogee_km":1198.9874843162,"semimajor_km":7575.8987039059,"source":"CELESTRAK","updated_at":"2026-05-25T13:38:22.476423Z"}}